Overview Statistics Trail Chart Weather Telemetry Raw packets
 

This is the latest recevied weather packets stored in our database for station/object N7ZAP. If no packets are shown the sender has not sent any weather packets the latest 10 day(s).

<< 33 34 35 36 37 38 39 >>
Time Temp. Humidity Pressure Rain* Wind** Luminosity Snow
1788467254 35.56° C 19% 1019 hPa 0 mm - - -
1788466952 35° C 19% 1018.9 hPa 0 mm - - -
1788466650 35° C 19% 1018.9 hPa 0 mm - - -
1788466346 35° C 19% 1018.9 hPa 0 mm - - -
1788466044 35° C 20% 1019.1 hPa 0 mm - - -
1788465740 35.56° C 19% 1019 hPa 0 mm - - -
1788465435 35.56° C 19% 1019.1 hPa 0 mm - - -
1788465132 35.56° C 19% 1019.1 hPa 0 mm - - -
1788464831 35.56° C 19% 1019.2 hPa 0 mm - - -
1788464527 34.44° C 21% 1019.2 hPa 0 mm - - -
1788464222 33.89° C 21% 1019.5 hPa 0 mm - - -
1788463923 34.44° C 20% 1019.4 hPa 0 mm - - -
1788463619 35.56° C 20% 1019.5 hPa 0 mm - - -
1788463314 35.56° C 20% 1019.6 hPa 0 mm - - -
1788463010 35° C 19% 1019.8 hPa 0 mm - - -
1788462710 34.44° C 20% 1019.7 hPa 0 mm - - -
1788462405 34.44° C 20% 1019.9 hPa 0 mm - - -
1788462105 35° C 19% 1020.1 hPa 0 mm - - -
1788461800 34.44° C 21% 1019.9 hPa 0 mm - - -
1788461495 33.89° C 21% 1020.3 hPa 0 mm - - -
1788461192 33.89° C 21% 1020.3 hPa 0 mm - - -
1788460888 34.44° C 21% 1020.3 hPa 0 mm - - -
1788460585 33.89° C 22% 1020.4 hPa 0 mm - - -
1788460281 33.89° C 22% 1020.6 hPa 0 mm - - -
1788459980 33.33° C 23% 1020.9 hPa 0 mm - - -

* Rain latest hour (hover to see other rain measurements)
** Current wind speed in m/s (hover to see current wind gust speed)